Location: Cormont
(50.5693°N, 1.7416°E)
Time: 03:43:46
(UTC+00:00)

Resurs 01 Rocket - Pass Details

Date: 21 October 2019
Orbit: 633 x 645 km, 98.0° (Epoch: 18 November)

Event Time Altitude Azimuth Distance (km) Brightness Sun altitude
Exits shadow 19:06:07 17° 23° (NNE) 1,648 3.6 -22.3°
Drops below altitude 10° 19:07:30 10° 9° (N) 2,053 4.2 -22.5°
Sets 19:10:03 0° 356° (N) 2,965 5.2 -22.9°
